Regional Weather Roundup
Issued by NWS Upton, NY

Current Version | Previous Version | Text Only | Print | Product List | Glossary On
Versions: 1 2 3 4 5 6 7 8 9 10 11 12 13 14 15 16 17 18 19 20 21 22 23 24 25 26 27 28 29 30 31 32 33 34 35 36 37 38 39 40 41 42 43 44 45 46 47 48 49 50
000
ASUS41 KOKX 311204
RWROKX

REGIONAL WEATHER ROUNDUP
NATIONAL WEATHER SERVICE NEW YORK NY
800 AM EDT FRI JUL 31 2015

NOTE: "FAIR" INDICATES FEW OR NO CLOUDS BELOW 12,000 FEET WITH NO
SIGNIFICANT WEATHER AND/OR OBSTRUCTIONS TO VISIBILITY.

NYZ071-072-176-178-NJZ106-104-311300-
NEW YORK CITY METRO AREA


CITY           SKY/WX    TMP DP  RH WIND       PRES   REMARKS
CENTRAL PARK   SUNNY     75  59  57 NW3       29.91R
LAGUARDIA APRT MOSUNNY   76  60  57 NW8       29.87R
KENNEDY INTL   MOSUNNY   79  60  52 NW9       29.88R
NEWARK/LIBERTY MOSUNNY   77  61  57 W5        29.88R
BRNX BOT. GARD   N/A     75  59  57 CALM      29.89R
TETERBORO      SUNNY     76  59  55 NW6       29.87R
$$

NYZ177-179-078>081-311300-
LONG ISLAND NEW YORK

CITY           SKY/WX    TMP DP  RH WIND       PRES   REMARKS
FARMINGDALE    SUNNY     76  63  64 NW7       29.87R
ISLIP          MOSUNNY   74  67  78 NW9       29.85R
SHIRLEY        SUNNY     75  68  78 NW6       29.87R
WESTHAMPTON    SUNNY     76  72  87 NW5       29.87R
MONTAUK POINT    N/A     74  74 100 W5        29.86R
$$

NYZ052-065-067-311300-
HUDSON VALLEY

CITY           SKY/WX    TMP DP  RH WIND       PRES   REMARKS
WHITE PLAINS   SUNNY     72  63  73 NW8       29.88R
NEWBURGH       NOT AVBL
MONTGOMERY     SUNNY     70  63  78 VRB3      29.89R
POUGHKEEPSIE   SUNNY     71  63  75 S3        29.86R
ALBANY         SUNNY     73  59  61 W10       29.85R
$$

NJZ001-105-106-008-010-013-015-019>022-104-311300-
NEW JERSEY

CITY           SKY/WX    TMP DP  RH WIND       PRES   REMARKS
NEWARK/LIBERTY MOSUNNY   77  61  57 W5        29.88R
TETERBORO      SUNNY     76  59  55 NW6       29.87R
CALDWELL       SUNNY     72  61  68 S3        29.89R
MORRISTOWN     SUNNY     75  70  83 NW5       29.89R
SOMERVILLE     SUNNY     71  64  78 CALM      29.88R
SUSSEX         SUNNY     64  63  96 S3        29.91R
ANDOVER          N/A     66  64  93 CALM      29.92R
TRENTON        SUNNY     72  63  73 NW7       29.90R
MILLVILLE      SUNNY     74  65  73 W7        29.91R
ATLANTIC CITY  SUNNY     75  68  78 NW6       29.90R
WRIGHTSTOWN    SUNNY     75  66  75 NW6       29.88R
TOMS RIVER       N/A     73  66  78 NW7       29.90R
BELMAR         SUNNY     73  64  73 W5        29.89R
$$

PAZ047>061-062-071-311300-
EASTERN PENNSYLVANIA

CITY           SKY/WX    TMP DP  RH WIND       PRES   REMARKS
PHILADELPHIA   SUNNY     76  62  62 N3        29.91R
ALLENTOWN      SUNNY     70  62  76 W3        29.92R
SCRANTON       SUNNY     70  59  68 W3        29.94R
$$

CTZ002-004>006-009-010-012-RIZ004-006-007-MAZ004-011-015-311300-
SOUTHERN NEW ENGLAND
 IN CT

CITY           SKY/WX    TMP DP  RH WIND       PRES   REMARKS
BRADLEY INTL   MOSUNNY   72  66  81 CALM      29.84R
HARTFORD       SUNNY     74  68  81 VRB5      29.84S
DANBURY        SUNNY     69  63  81 SW6       29.89R
WTRBRY/OXFORD  SUNNY     70  63  78 CALM      29.90R
BRIDGEPORT     SUNNY     76  64  66 W5        29.86R
MERIDEN        SUNNY     74  66  76 W5        29.86R
NEW HAVEN      SUNNY     74  66  76 CALM      29.86R
CHESTER        FAIR      72  66  83 NW5       29.87R
GROTON         FOG       71  70  96 SW5       29.84R VSB 1/4
WILLIMANTIC    SUNNY     71  69  93 CALM      29.85S FOG

 IN RI

CITY           SKY/WX    TMP DP  RH WIND       PRES   REMARKS
PROVIDENCE     MOSUNNY   75  68  78 W9        29.84R
BLOCK ISLAND     N/A     72  72 100 W6        29.86R
WESTERLY       SUNNY     74  70  87 W3        29.85R

 IN MA

CITY           SKY/WX    TMP DP  RH WIND       PRES   REMARKS
BOSTON         MOSUNNY   76  63  64 W12       29.81R
WORCESTER      SUNNY     69  63  81 W10       29.86R
WESTFIELD      SUNNY     70  64  81 S3        29.84S
PROVINCETOWN   SUNNY     73  64  73 W9        29.81R
NANTUCKET      SUNNY     78  70  76 W5        29.82R
$$

ANZ330-335-338-340-345-350-353-355-311300-
COASTAL MARINE OBSERVATIONS


STATION/POSITION TIME  SKY/WX   TEMP    WIND        PRES    VSBY  WAVE
                                AIR SEA DIR/SP/G                  HT/PER
                 (UTC)          (F)     (DEG/KT/KT) (MB)    (MI)  (FT/S)
NY HARB ENTRANCE 1050            75 76  300/  8/ 10 1010.8          2/ 6
4S FIRE IS       NOT AVBL
20S FIRE ISLAND  1050            76 74  330/ 12/ 14 1010.4          3/ 5
GREAT SOUTH BAY  1100            74 80  320/  8/ 10   N/A
23SW MTP         1150            70 72  280/  8/ 10 1010.3          3/ 5
HUDSON CANYON    NOT AVBL
KINGS POINT      1100            73 69   CALM  /  2 1010.7
EXECUTION ROCKS  1100            79     210/  2/  4   N/A
CENTRAL LI SOUND NOT AVBL
EASTERN LI SOUND 1100            69 69  250/  2/  4   N/A
ROBBINS REEF     1100            75     270/  4/  5 1010.4
$$


>>>>>>>>>>>>>>>>>>>>>>>>>>>> KEY <<<<<<<<<<<<<<<<<<<<<<<<<<<
>                                                          <
>     SKY/WX - SKY CONDITION/PRESENT WEATHER               <
>     TMP    - TEMPERATURE IN FAHRENHEIT                   <
>     DP     - DEWPOINT IN FAHRENHEIT                      <
>     RH     - RELATIVE HUMIDITY IN PERCENT                <
>     WIND   - DIRECTION AND SPEED IN MPH                  <
>     PRES   - MEAN SEA LEVEL PRESSURE IN INCHES OF HG     <
>     WCI    - WIND CHILL INDEX                            <
>     VSB    - VISIBILITY IN MILES                         <
>     HX     - HEAT INDEX                                  <
>     TC     - TEMPERATURE IN CELSIUS                      <
>     VRB    - VARIABLE WIND DIRECTION                     <
>                                                          <
>>>>>>>>>>>>>>>>>>>>>>>>>>>> KEY <<<<<<<<<<<<<<<<<<<<<<<<<<<





USA.gov is the U.S. government's official web portal to all federal, state and local government web resources and services.